{"data":{"norad_id":45074,"epoch":"2026-09-20T03:23:43.653408Z","epoch_age_seconds":45413,"freshness":"FRESH","line1":"1 45074U 20006AG  26263.14147747  .00047322  00000+0  91602-3 0  9990","line2":"2 45074  53.1496  62.3408 0001252 172.6641 187.4385 15.47286608366817","mean_motion":15.47286608,"eccentricity":0.0001252,"inclination_deg":53.1496,"raan_deg":62.3408,"arg_perigee_deg":172.6641,"mean_anomaly_deg":187.4385,"bstar":0.00091602,"rev_number":36681,"period_min":93.066145118474,"perigee_km":423.81589155674,"apogee_km":425.51931382926,"semimajor_km":6802.804602693,"source":"CELESTRAK","updated_at":"2026-09-20T09:00:38.224275Z"}}